STARLINK-11111, 59764

Orbit data source: Space-Track

STARLINK-11111, 59764 is a payload satellite owned by SpaceX/Seattle (US) in LEO that was launched on Tue, 14 May 2024 UTC via an FALCON 9 launch vehicle from the Air Force Western Test Range (AFWTR). Payload-class satellites include a variety of spacecraft equipped with specific instruments for various scientific and technological missions. These include communications satellites like Starlink; space stations such as the ISS; scientific satellites like the Hubble; Earth observation satellites from companies like Planet Labs, Umbra, and HawkEye 360; GPS; miniature CubeSats for education and research; and military/defense satellites.

Loading next visibility...
Identifier
59764, 2024-091M
Orbit
LEO
Country
Flag of USUS
Related business
Manufacturer
SpaceX/Seattle
Mission
Partially operational Commercial Communications
Bus & Motor
STARLINK V2MD, Unknown motor
Mass
960 kg wet, ~910 kg dry
Launch date (UTC)
2024-05-14 (2 years ago)
Launch vehicle
FALCON 9
Launch site
Air Force Western Test Range (AFWTR)
Object type
Payload
Rocket body
Debris
Shape & HBR
Box + 2 Pan, 18.1 m
Radar Cross Section
36.964 m², Large (>1 m²)

Expand to show TLE details & history
Last TLE update: 2 days ago

TLE from 2 days ago
0 STARLINK-11111
1 59764U 24091M   26170.96064920  .00104051  00000-0  52780-3 0  9995
2 59764  53.1469  59.3171 0004073 123.0485 237.0930 15.80722783121612
Epoch: 2026-06-19T23:03Z
TLE epoch observation values (Epoch: 2026-06-19T23:03:20.090Z)
Latitude
0.00003°
Longitude
165.30129°
Altitude
330.798 km
Speed
7.71 km/s
True Right ascension
03h 57m 16s
True Declination
0° 00' 00"
Sunlit
Object was in daylight at epoch
Visualization orbit readout
Latitude
Unknown
Longitude
Unknown
Altitude
Unknown
Speed
Unknown
Apparent Right ascension
Unknown
Apparent Declination
Unknown
Sunlit
N/A
Visualization observer readout
Local Sidereal Time
21:31:25
Azimuth
Unknown
Elevation
Unknown
Doppler factor
Unknown
Orbital elements
Apogee altitude
331.391 km
Perigee altitude
325.928 km
Semi-major axis
6,706.797 km
Eccentricity
0.00041
Inclination
53.1469°
RAAN
59.3171°
Arg. of periapsis
123.0485°
True anomaly
237.05383°
Mean anomaly
237.093°
Eccentric anomaly
237.07341°
Mean motion
3.95158 °/min
Orbital period
91.1 mins
BSTAR
0.0005278
Loading maneuver chart data...
Computing Atmospheric mass density...
Loading historical data...
Loading historical data...
Loading historical data...
Loading historical data...
Loading historical data...
Loading historical data...
Loading historical data...

Documentation

Showing up to 5 results
|